Location: Bennemühlen
(52.5740°N, 9.7135°E)
Time: 05:32:27
(UTC+00:00)

A-11 Canister half - Pass Details

Date: 19 February 2026
Orbit: 1512 x 1687 km, 47.2° (Epoch: 5 March)

Event Time Altitude Azimuth Distance (km) Brightness Sun altitude
Rises 02:40:17 0° 286° (WNW) 4,875 - -34.6°
Reaches altitude 10° 02:44:01 10° 276° (W) 3,860 - -34.1°
Maximum altitude 02:51:47 28° 223° (SW) 2,658 - -33.0°
Exits shadow 02:58:38 12° 172° (S) 3,568 10.7 -32.1°
Drops below altitude 10° 02:59:19 10° 169° (S) 3,737 10.9 -32.0°
Sets 03:02:54 0° 159° (SSE) 4,694 11.5 -31.5°
